Location: Hurstbourne Priors
(51.2000°N, 1.3667°W)
Time: 17:01:22
(UTC+00:00)

CZ-2C R/B - Pass Details

Date: 09 April 2020
Orbit: 785 x 870 km, 98.3° (Epoch: 25 May)

Event Time Altitude Azimuth Distance (km) Brightness Sun altitude
Rises 20:56:21 0° 12° (NNE) 3,291 6.2 -18.0°
Reaches altitude 10° 20:58:41 10° 10° (N) 2,357 5.4 -18.3°
Maximum altitude 21:03:49 67° 289° (WNW) 857 2.9 -18.9°
Drops below altitude 10° 21:08:58 10° 208° (SSW) 2,359 4.9 -19.5°
Sets 21:11:18 0° 206° (SSW) 3,293 5.6 -19.8°
